EW0920 Weather Reports


time (UTC)temp
F
wind
direction
speed
knots
gust
knots
rain 1hr
in
rain 24hr
in
rain mn
in
humidity
%
barometer
mb
20260505204818 73 56 1.7 2.6 0.00 0.00 0.00 54 1010.5
20260505204316 73 53 0.0 5.2 0.00 0.00 0.00 54 1010.7
20260505203813 73 317 2.6 3.5 0.00 0.00 0.00 53 1010.6
20260505203310 73 65 1.7 1.7 0.00 0.00 0.00 54 1010.6
20260505202806 73 59 0.9 1.7 0.00 0.00 0.00 54 1010.5
20260505202305 73 30 0.0 5.2 0.00 0.00 0.00 53 1010.7
20260505201759 74 9 1.7 7.0 0.00 0.00 0.00 52 1010.8
20260505201256 74 352 0.0 0.9 0.00 0.00 0.00 54 1010.8
20260505200754 74 147 1.7 3.5 0.00 0.00 0.00 52 1010.8
20260505200251 74 24 1.7 5.2 0.00 0.00 0.00 51 1010.9
20260505195746 74 34 3.5 5.2 0.00 0.00 0.00 51 1011.1
20260505195244 74 356 0.9 3.5 0.00 0.00 0.00 55 1011.0
20260505194741 74 31 5.2 7.8 0.00 0.00 0.00 51 1011.2
20260505194238 74 98 2.6 5.2 0.00 0.00 0.00 51 1011.2
20260505193728 74 30 1.7 2.6 0.00 0.00 0.00 51 1011.0
20260505193226 74 106 1.7 7.0 0.00 0.00 0.00 51 1011.3
20260505192724 74 35 0.0 3.5 0.00 0.00 0.00 52 1011.3
20260505192221 74 80 2.6 9.6 0.00 0.00 0.00 52 1011.3
20260505191719 74 3 0.9 14.8 0.00 0.00 0.00 52 1011.4
20260505191217 74 286 0.9 3.5 0.00 0.00 0.00 53 1011.6
20260505190713 74 107 0.0 5.2 0.00 0.00 0.00 53 1011.3
20260505190213 74 3 1.7 1.7 0.00 0.00 0.00 52 1011.6
20260505185710 73 356 0.9 7.8 0.00 0.00 0.00 53 1011.6
20260505185206 74 358 1.7 2.6 0.00 0.00 0.00 53 1011.7
20260505184702 74 252 1.7 2.6 0.00 0.00 0.00 53 1011.8
20260505184200 74 39 0.0 3.5 0.00 0.00 0.00 53 1012.0
20260505183656 75 98 1.7 7.0 0.00 0.00 0.00 54 1011.8
20260505183154 74 36 0.0 7.8 0.00 0.00 0.00 53 1011.8
20260505182650 75 8 3.5 11.3 0.00 0.00 0.00 51 1011.9
20260505182147 75 23 5.2 7.8 0.00 0.00 0.00 52 1011.8
20260505181643 74 339 1.7 8.7 0.00 0.00 0.00 53 1012.3
20260505181141 73 31 0.9 3.5 0.00 0.00 0.00 54 1011.9
20260505180637 73 9 5.2 7.0 0.00 0.00 0.00 53 1012.0
20260505180135 73 45 3.5 7.0 0.00 0.00 0.00 53 1012.1
20260505175631 73 88 2.6 8.7 0.00 0.00 0.00 53 1012.2
20260505175127 73 345 5.2 6.1 0.00 0.00 0.00 53 1012.2
20260505174624 73 86 3.5 6.1 0.00 0.00 0.00 54 1012.1
20260505174120 73 253 2.6 6.1 0.00 0.00 0.00 52 1012.1
20260505173617 73 92 1.7 5.2 0.00 0.00 0.00 54 1012.0
20260505173113 73 60 0.0 5.2 0.00 0.00 0.00 53 1012.1
20260505172611 73 226 3.5 5.2 0.00 0.00 0.00 54 1012.2
20260505172108 73 29 2.6 3.5 0.00 0.00 0.00 53 1012.1
20260505171602 74 295 3.5 7.0 0.00 0.00 0.00 52 1012.1
20260505171100 74 41 0.9 6.1 0.00 0.00 0.00 52 1012.0
20260505170556 75 45 0.9 8.7 0.00 0.00 0.00 52 1012.0
20260505170053 74 79 0.0 7.8 0.00 0.00 0.00 53 1012.0
20260505165543 74 329 1.7 6.1 0.00 0.00 0.00 54 1011.9
20260505165039 74 167 2.6 6.1 0.00 0.00 0.00 53 1011.8
20260505164535 74 261 6.1 11.3 0.00 0.00 0.00 52 1011.9
20260505164033 74 43 1.7 7.8 0.00 0.00 0.00 52 1012.0
20260505163531 74 101 1.7 3.5 0.00 0.00 0.00 55 1012.0
20260505163027 74 74 1.7 7.8 0.00 0.00 0.00 53 1011.9
20260505162521 73 332 0.0 3.5 0.00 0.00 0.00 55 1012.1
20260505162018 73 41 2.6 5.2 0.00 0.00 0.00 55 1012.1
20260505161514 73 81 1.7 2.6 0.00 0.00 0.00 54 1012.3
20260505161012 73 48 0.0 3.5 0.00 0.00 0.00 55 1012.1
20260505160510 72 33 0.0 5.2 0.00 0.00 0.00 55 1012.2
20260505152945 71 0 1.7 2.6 0.00 0.00 0.00 55 1011.7
20260505152443 71 8 0.0 0.9 0.00 0.00 0.00 56 1011.5
20260505151938 71 144 3.5 7.0 0.00 0.00 0.00 56 1011.6
20260505151433 71 354 4.3 6.1 0.00 0.00 0.00 56 1011.7
20260505150931 71 124 1.7 5.2 0.00 0.00 0.00 57 1011.9
20260505150428 71 302 0.0 1.7 0.00 0.00 0.00 58 1011.8
20260505140357 70 10 0.0 1.7 0.00 0.00 0.00 57 1011.8
20260505124811 66 228 0.9 2.6 0.00 0.00 0.00 64 1011.9
20260505124308 66 29 1.7 2.6 0.00 0.00 0.00 64 1012.0
20260505123804 65 146 2.6 5.2 0.00 0.00 0.00 65 1012.0
20260505123300 65 32 0.0 3.5 0.00 0.00 0.00 66 1012.2
20260505122756 64 73 0.9 2.6 0.00 0.00 0.00 68 1012.0
20260505122254 64 28 0.0 0.9 0.00 0.00 0.00 68 1012.1
20260505121750 64 43 0.9 2.6 0.00 0.00 0.00 68 1012.0
20260505121247 64 34 0.9 1.7 0.00 0.00 0.00 68 1012.1
20260505120744 63 350 0.9 5.2 0.00 0.00 0.00 68 1011.9
20260505120240 63 28 0.0 5.2 0.00 0.00 0.00 68 1011.8
20260505115739 63 15 0.0 1.7 0.00 0.00 0.00 68 1011.9
20260505115236 63 8 0.9 1.7 0.00 0.00 0.00 69 1011.8
20260505114734 63 67 1.7 1.7 0.00 0.00 0.00 68 1011.7
20260505114229 64 22 2.6 2.6 0.00 0.00 0.00 70 1011.7
20260505113726 64 357 0.0 1.7 0.00 0.00 0.00 68 1011.7
20260505113223 64 50 0.9 2.6 0.00 0.00 0.00 68 1011.5
20260505112719 64 32 0.0 1.7 0.00 0.00 0.00 68 1011.3
20260505112217 63 14 0.9 6.1 0.00 0.00 0.00 68 1011.3
20260505111712 63 35 0.9 1.7 0.00 0.00 0.00 68 1011.2
20260505111208 63 334 0.0 1.7 0.00 0.00 0.00 71 1011.1
20260505110704 62 17 0.0 1.7 0.00 0.00 0.00 75 1011.3
20260505110202 63 353 0.0 0.0 0.00 0.00 0.00 74 1011.2
20260505102137 63 8 0.9 0.9 0.00 0.00 0.00 71 1011.4
20260505101636 62 291 0.0 1.7 0.00 0.00 0.00 76 1011.3
20260505101132 62 351 0.0 1.7 0.00 0.00 0.00 74 1011.2
20260505100628 62 358 0.0 0.9 0.00 0.00 0.00 72 1011.2
20260505100125 62 6 0.9 3.5 0.00 0.00 0.00 70 1011.0
20260505095621 61 38 1.7 1.7 0.00 0.00 0.00 73 1011.0
20260505095118 62 12 0.0 0.9 0.00 0.00 0.00 73 1011.1
20260505094614 61 40 0.0 0.9 0.00 0.00 0.00 73 1010.9
20260505094110 60 41 0.0 0.9 0.00 0.00 0.00 76 1011.2
20260505093607 60 16 0.0 0.9 0.00 0.00 0.00 81 1010.9
20260505093104 60 20 0.9 0.9 0.00 0.00 0.00 77 1011.0
20260505092601 60 278 0.0 1.7 0.00 0.00 0.00 78 1011.0
20260505092100 60 8 0.0 0.0 0.00 0.00 0.00 80 1010.9
20260505091556 60 12 0.0 0.9 0.00 0.00 0.00 80 1010.9
20260505091055 60 22 0.0 0.9 0.00 0.00 0.00 80 1010.8
20260505090552 61 351 0.0 1.7 0.00 0.00 0.00 78 1010.7
20260505090050 61 358 0.0 0.0 0.00 0.00 0.00 78 1010.7
20260505085547 61 12 0.0 1.7 0.00 0.00 0.00 76 1010.7
20260505085046 62 23 0.9 0.9 0.00 0.00 0.00 77 1010.6
20260505084543 63 336 0.0 0.9 0.00 0.00 0.00 75 1010.7
20260505084041 63 19 0.0 0.9 0.00 0.00 0.00 71 1010.7
20260505083538 63 12 0.0 0.9 0.00 0.00 0.00 71 1010.6
20260505083035 62 28 0.0 1.7 0.00 0.00 0.00 71 1010.5
20260505082530 62 44 0.9 1.7 0.00 0.00 0.00 73 1010.2
20260505082027 62 325 0.9 1.7 0.00 0.00 0.00 72 1010.2
20260505081524 61 147 1.7 2.6 0.00 0.00 0.00 73 1010.3
20260505081021 62 341 0.0 0.0 0.00 0.00 0.00 75 1010.4
20260505080517 62 25 0.9 2.6 0.00 0.00 0.00 73 1010.2
20260505080014 62 35 0.9 1.7 0.00 0.00 0.00 74 1010.2
20260505075510 61 34 0.0 0.9 0.00 0.00 0.00 77 1010.4
20260505075007 61 321 0.0 0.9 0.00 0.00 0.00 79 1010.2
20260505074504 61 12 0.9 1.7 0.00 0.00 0.00 75 1010.2
20260505074001 61 50 0.9 1.7 0.00 0.00 0.00 74 1010.2
20260505073459 61 24 0.0 0.9 0.00 0.00 0.00 76 1010.0
20260505072956 61 115 2.6 2.6 0.00 0.00 0.00 75 1010.0
20260505072452 61 333 0.9 2.6 0.00 0.00 0.00 75 1010.2
20260505071948 61 24 0.9 1.7 0.00 0.00 0.00 74 1010.0
20260505071444 61 29 0.9 1.7 0.00 0.00 0.00 78 1010.1
20260505070943 60 19 0.0 0.9 0.00 0.00 0.00 80 1009.8
20260505070439 60 315 0.0 0.9 0.00 0.00 0.00 80 1009.7
20260505065935 61 18 0.0 0.9 0.00 0.00 0.00 77 1009.7
20260505065431 60 19 0.0 1.7 0.00 0.00 0.00 80 1009.9
20260505064928 60 11 0.0 0.9 0.00 0.00 0.00 81 1009.7
20260505064425 60 3 0.0 0.9 0.00 0.00 0.00 81 1010.0
20260505063924 60 34 0.9 1.7 0.00 0.00 0.00 83 1010.0
20260505063420 59 208 0.0 0.0 0.00 0.00 0.00 84 1009.9
20260505062916 59 30 0.9 0.9 0.00 0.00 0.00 83 1009.8
20260505062414 59 6 0.0 0.9 0.00 0.00 0.00 85 1010.0
20260505061910 59 349 0.0 0.9 0.00 0.00 0.00 84 1009.9
20260505061409 59 10 0.0 0.9 0.00 0.00 0.00 84 1010.0
20260505060906 60 11 0.0 0.9 0.00 0.00 0.00 83 1010.1
20260505060402 60 8 0.0 0.9 0.00 0.00 0.00 81 1010.3
20260505055858 60 336 0.0 0.9 0.00 0.00 0.00 82 1010.4
20260505055355 61 346 0.0 0.9 0.00 0.00 0.00 82 1010.2
20260505054852 62 346 0.0 0.9 0.00 0.00 0.00 79 1010.4
20260505054349 61 115 0.9 2.6 0.00 0.00 0.00 73 1010.3
20260505053847 62 341 0.0 0.0 0.00 0.00 0.00 80 1010.4
20260505053344 62 332 0.0 0.9 0.00 0.00 0.00 80 1010.4
20260505052841 61 332 0.0 1.7 0.00 0.00 0.00 81 1010.4
20260505052337 61 10 0.0 1.7 0.00 0.00 0.00 77 1010.5
20260505051834 61 11 0.0 0.9 0.00 0.00 0.00 82 1010.3
20260505051332 61 347 0.0 0.9 0.00 0.00 0.00 83 1010.4
20260505050830 61 322 0.9 2.6 0.00 0.00 0.00 78 1010.5
20260505050329 60 0 0.0 1.7 0.00 0.00 0.00 87 1010.4
20260505041752 57 346 0.0 0.0 0.00 0.00 0.00 93 1010.1
20260505041249 57 351 0.0 0.0 0.00 0.00 0.00 93 1010.1
20260505040747 57 351 0.0 0.0 0.00 0.00 0.00 93 1010.2
20260505040244 56 352 0.0 0.0 0.00 0.00 0.00 93 1010.1
20260505035741 56 351 0.0 0.0 0.00 0.00 0.00 93 1010.0
20260505035237 56 352 0.0 0.0 0.00 0.00 0.00 93 1009.9
20260505034734 56 352 0.0 0.0 0.00 0.00 0.00 93 1009.9
20260505034230 56 357 0.0 0.0 0.00 0.00 0.00 93 1010.0
20260505033727 56 352 0.0 0.0 0.00 0.00 0.00 93 1009.8
20260505033225 56 352 0.0 0.0 0.00 0.00 0.00 93 1009.8
20260505032722 56 352 0.0 0.0 0.00 0.00 0.00 93 1009.7
20260505032218 56 352 0.0 0.0 0.00 0.00 0.00 93 1010.0
20260505031715 56 352 0.0 0.0 0.00 0.00 0.00 93 1009.9
20260505031206 56 352 0.0 0.0 0.00 0.00 0.00 93 1009.7
20260505030703 56 352 0.0 0.0 0.00 0.00 0.00 93 1009.9
20260505030159 56 352 0.0 0.0 0.00 0.00 0.00 93 1009.9
20260505025655 56 352 0.0 0.0 0.00 0.00 0.00 93 1009.7
20260505025154 56 352 0.0 0.0 0.00 0.00 0.00 92 1009.8
20260505024651 56 352 0.0 0.0 0.00 0.00 0.00 92 1010.0
20260505024148 57 352 0.0 0.0 0.00 0.00 0.00 92 1009.8
20260505023646 57 352 0.0 0.0 0.00 0.00 0.00 92 1009.8
20260505023143 57 352 0.0 0.0 0.00 0.00 0.00 92 1009.8
20260505022640 57 352 0.0 0.0 0.00 0.00 0.00 92 1009.7
20260505022137 57 359 0.0 0.0 0.00 0.00 0.00 92 1009.9
20260505021634 57 359 0.0 0.0 0.00 0.00 0.00 91 1009.9
20260505021131 57 359 0.0 0.0 0.00 0.00 0.00 91 1009.8
20260505020626 57 359 0.0 0.0 0.00 0.00 0.00 91 1009.8
20260505020122 57 359 0.0 0.0 0.00 0.00 0.00 90 1009.4
20260505015619 57 359 0.0 0.0 0.00 0.00 0.00 90 1009.4
20260505015116 58 359 0.0 0.0 0.00 0.00 0.00 90 1009.4
20260505014612 58 359 0.0 0.0 0.00 0.00 0.00 89 1009.5
20260505014110 58 359 0.0 0.0 0.00 0.00 0.00 89 1009.5
20260505013607 58 359 0.0 0.0 0.00 0.00 0.00 88 1009.7
20260505013104 59 359 0.0 0.0 0.00 0.00 0.00 88 1009.4
20260505012602 59 359 0.0 0.0 0.00 0.00 0.00 87 1009.4
20260505012059 59 359 0.0 0.0 0.00 0.00 0.00 87 1009.3
20260505011554 59 359 0.0 0.0 0.00 0.00 0.00 86 1009.5
20260505011052 60 359 0.0 0.0 0.00 0.00 0.00 86 1009.6
20260505010547 60 359 0.0 0.0 0.00 0.00 0.00 85 1009.4
20260505010044 60 359 0.0 0.0 0.00 0.00 0.00 85 1009.4
20260505005540 60 359 0.0 0.0 0.00 0.00 0.00 84 1009.4
20260505005038 61 359 0.0 0.0 0.00 0.00 0.00 83 1009.3
20260505004534 61 359 0.0 0.0 0.00 0.00 0.00 83 1009.4
20260505004031 62 359 0.0 0.0 0.00 0.00 0.00 82 1009.3
20260505003529 62 359 0.0 0.0 0.00 0.00 0.00 81 1009.2
20260505003027 62 359 0.0 0.0 0.00 0.00 0.00 80 1009.3
20260505002526 63 359 0.0 0.0 0.00 0.00 0.00 79 1009.3
20260505002026 64 359 0.0 0.0 0.00 0.00 0.00 79 1009.2
20260505001522 64 359 0.0 0.0 0.00 0.00 0.00 78 1009.3
20260505001019 65 359 0.0 0.0 0.00 0.00 0.00 77 1009.3
20260505000517 65 359 0.0 0.0 0.00 0.00 0.00 75 1009.3
20260505000014 66 355 0.0 0.0 0.00 0.00 0.00 74 1009.3
20260504235511 66 356 0.0 0.0 0.00 0.00 0.00 74 1009.4
20260504235007 67 356 0.0 0.0 0.00 0.00 0.00 71 1009.4
20260504234505 68 357 0.0 0.9 0.00 0.00 0.00 66 1009.4
20260504234001 68 356 0.0 0.0 0.00 0.00 0.00 66 1009.5
20260504233456 69 21 0.9 0.9 0.00 0.00 0.00 63 1009.5
20260504232954 70 349 0.0 0.0 0.00 0.00 0.00 64 1009.4
20260504232451 70 16 0.0 0.9 0.00 0.00 0.00 61 1009.5
20260504231948 71 13 0.0 0.9 0.00 0.00 0.00 61 1009.5
20260504231444 71 16 0.0 0.9 0.00 0.00 0.00 58 1009.6
20260504230941 72 345 0.0 5.2 0.00 0.00 0.00 55 1009.7
20260504230437 72 359 0.9 1.7 0.00 0.00 0.00 55 1009.8
20260504225937 72 352 0.0 1.7 0.00 0.00 0.00 54 1009.9
20260504225433 72 20 1.7 2.6 0.00 0.00 0.00 54 1009.9
20260504224930 73 75 0.9 1.7 0.00 0.00 0.00 54 1010.0
20260504224427 73 22 0.0 0.9 0.00 0.00 0.00 54 1009.8
20260504223924 72 32 2.6 3.5 0.00 0.00 0.00 54 1010.1
20260504223419 72 11 0.0 0.9 0.00 0.00 0.00 55 1010.1
20260504222915 72 47 0.0 1.7 0.00 0.00 0.00 55 1010.3
20260504222413 72 6 0.0 0.9 0.00 0.00 0.00 55 1010.2
20260504221911 72 350 1.7 1.7 0.00 0.00 0.00 54 1010.3
20260504221408 73 12 0.0 0.0 0.00 0.00 0.00 55 1010.4
20260504220905 73 352 1.7 3.5 0.00 0.00 0.00 54 1010.2
20260504220401 73 313 0.0 1.7 0.00 0.00 0.00 54 1010.4
20260504215859 73 65 0.9 2.6 0.00 0.00 0.00 54 1010.5
20260504215355 73 223 0.9 5.2 0.00 0.00 0.00 53 1010.5
20260504214851 74 11 0.0 1.7 0.00 0.00 0.00 52 1010.4
20260504214348 74 330 0.0 1.7 0.00 0.00 0.00 52 1010.6
20260504213845 73 353 0.9 1.7 0.00 0.00 0.00 52 1010.6
20260504213340 71 224 0.0 0.9 0.00 0.00 0.00 57 1010.6
20260504212838 71 18 0.9 1.7 0.00 0.00 0.00 54 1010.8
20260504212334 72 84 1.7 1.7 0.00 0.00 0.00 54 1010.6
20260504211832 72 67 0.9 3.5 0.00 0.00 0.00 55 1011.0
20260504211328 72 2 0.9 1.7 0.00 0.00 0.00 54 1010.9
20260504210826 72 68 0.0 1.7 0.00 0.00 0.00 56 1010.8
20260504210323 72 167 2.6 3.5 0.00 0.00 0.00 55 1010.7
20260504205820 72 27 0.9 1.7 0.00 0.00 0.00 56 1011.0
20260504205318 72 34 0.0 1.7 0.00 0.00 0.00 54 1010.9